Location: Asheville, NC
(35.6000°N, 82.5500°W)
Time: 16:11:21

XW-2C - Pass Details

Date: 03 January 2018
Orbit: 511 x 531 km, 97.5° (Epoch: 21 March)

Event Time Altitude Azimuth Distance (km) Brightness Sun altitude
Rises 18:59:31 0° 213° (SSW) 2,648 ? -17.8°
Reaches altitude 10° 19:02:56 10° 247° (WSW) 1,769 ? -18.4°
Maximum altitude 19:04:18 12° 268° (W) 1,673 ? -18.7°
Drops below altitude 10° 19:05:40 10° 289° (WNW) 1,777 ? -19.0°
Sets 19:09:09 0° 323° (NW) 2,675 ? -19.7°
